Location: Akhmadzhi
(42.0553°N, 44.4782°E)
Time: 10:37:17
(UTC+00:00)

Daily predictions for brighter satellites

Satellite Brightness Start Highest point End
(mag) Time Altitude Azimuth Time Altitude Azimuth Time Altitude Azimuth
Tsikada Rocket 4.4 16:46:29 10° SSE 16:52:15 43° E 16:58:06 10° NNE
Cosmos 1420 Rocket 4.1 16:47:48 10° NNW 16:53:08 72° ENE 16:58:24 10° SSE
BREEZE-M DEB (TANK) 2.5 16:53:51 10° SW 16:56:10 65° SE 17:01:44 10° ENE
Cosmos-2242 4.3 16:52:50 10° SSW 16:56:51 44° WNW 17:00:56 10° N
SeaSat 1 2.7 16:51:59 10° SSE 16:56:53 73° WSW 17:01:49 10° NNW
Cosmos 1943 Rocket 3.6 16:54:17 10° NW 16:59:25 36° WSW 17:04:29 10° S
Cosmos 1943 3.8 16:55:32 10° SSE 17:00:34 34° ESE 17:05:38 10° NE
Cosmos 1933 4.2 17:01:33 10° SSW 17:05:25 52° WNW 17:09:17 10° N
Cosmos 1378 3.2 17:05:10 10° SSW 17:08:24 65° W 17:11:41 10° N
PSLV R/B 3.7 17:05:43 10° SSE 17:09:26 87° WSW 17:13:09 10° NNW
MOS 1-B Rocket 4.4 17:01:47 10° SSE 17:09:27 77° ENE 17:15:58 10° N
Cosmos 2112 Rocket 4.5 17:06:20 10° SSW 17:11:38 68° WNW 17:16:54 10° NNE
DELTA 2 DEB (DPAF) 4.3 17:08:59 10° N 17:13:13 74° WNW 17:17:26 10° SSW
Resurs 01 Rocket 2.1 17:09:50 10° S 17:14:13 64° WSW 17:18:38 10° NNW
ATLAS 3B R/B 3.4 17:06:57 10° NW 17:14:43 67° WSW 17:22:18 10° SSE
Cosmos 1726 3.8 17:13:10 10° NE 17:14:53 14° ENE 17:16:31 10° ESE
Cosmos 2292 Rocket 4.3 17:13:01 10° S 17:19:37 69° E 17:24:41 10° NNE
USA 306 4.4 17:17:16 10° NNW 17:20:27 25° NNE 17:23:44 10° E
Okean O Rocket 2.2 17:20:22 10° S 17:24:43 59° W 17:29:07 10° NNW
ISS -2.7 17:22:01 10° NW 17:25:12 38° NNE 17:28:12 11° E
USA 276 1.2 17:25:02 10° WNW 17:27:10 68° SSW 17:28:28 21° SE
CZ-4 R/B 3.9 17:26:14 10° SW 17:28:51 18° W 17:31:30 10° NW
MetOp-B 4.4 17:24:10 11° SSE 17:29:13 56° ENE 17:34:28 10° N
Cosmos 2221 2.7 17:25:17 10° SSW 17:29:35 78° W 17:33:56 10° N
Ariane Rocket 4.2 17:28:04 13° ESE 17:31:43 27° ENE 17:35:58 10° N
CZ-4B R/B 4.5 17:28:25 10° SSW 17:33:20 37° W 17:38:14 10° NNW
Cosmos 1766 Rocket 3.6 17:34:20 10° N 17:38:48 89° ENE 17:43:08 11° S
Cosmos 2056 Rocket 4.3 17:38:22 10° NNW 17:43:33 50° WSW 17:48:37 10° S
USA 32 4.0 17:40:04 10° S 17:45:17 88° E 17:50:33 10° N
Terra 2.5 17:42:12 17° SE 17:45:20 39° ENE 17:49:43 10° N
Cosmos 2297 4.2 17:40:38 10° NNW 17:46:16 58° WSW 17:51:38 11° S
Cosmos 1452 Rocket 3.9 17:42:11 10° N 17:47:19 51° ENE 17:50:51 19° SE
Lacrosse 5 3.9 17:47:41 10° WNW 17:51:16 19° WSW 17:54:50 10° SSW
Cosmos 921 Rocket 4.4 17:47:11 10° SW 17:51:26 42° WNW 17:55:43 10° N
Cosmos 1340 Rocket 4.2 17:52:54 20° ESE 17:53:49 22° E 17:56:55 10° NE
ERS-1 Rocket 3.1 17:52:36 19° SSE 17:56:07 62° ENE 18:01:06 10° N
Cosmos 2279 Rocket 4.0 17:51:01 10° N 17:57:10 64° E 18:01:45 19° SSE
Aureole 3 Rocket 4.2 17:54:03 10° NNW 17:58:22 53° W 18:04:20 10° S
BREEZE-M DEB (TANK) 4.4 17:59:06 10° WNW 18:01:21 22° NNW 18:03:08 10° NE
Cosmos 1408 Rocket 3.8 18:00:42 10° N 18:05:03 52° ENE 18:07:14 27° SE
Meteor 1-10 Rocket 4.2 18:00:41 10° S 18:06:19 74° E 18:11:57 10° NNE
Cosmos 1634 Rocket 4.2 18:00:17 10° NNW 18:06:32 72° W 18:12:14 12° S
USA 245 1.8 18:07:28 63° E 18:07:31 64° ENE 18:09:48 10° N
Okean-O 3.9 18:04:48 10° SSW 18:08:53 37° W 18:12:59 10° NNW
Cosmos 1603 3.6 18:04:31 10° SSW 18:10:10 81° ESE 18:15:55 10° NNE
Cosmos 1743 4.0 18:06:59 10° NNW 18:10:17 34° W 18:13:17 12° SSW
SPOT 5 3.2 18:08:38 16° S 18:12:11 56° W 18:16:32 10° NNW
Cosmos 2369 Rocket 3.1 18:11:22 10° NW 18:16:38 43° WSW 18:20:53 15° S
Meteor 1-11 Rocket 3.7 18:13:30 10° N 18:19:12 74° E 18:22:34 26° SSE
BREEZE-M DEB (TANK) 4.4 18:18:11 10° W 18:22:09 65° N 18:34:18 10° E
USA 229 DEB 4.4 18:15:54 10° NW 18:23:19 58° WSW 18:28:50 21° S
USA 229 4.4 18:15:59 10° NW 18:23:25 59° WSW 18:28:56 21° S
FALCON 9 R/B 3.6 18:18:38 10° WSW 18:23:59 47° S 18:37:54 14° ESE
Cosmos 1151 Rocket 3.6 18:23:43 33° ESE 18:24:41 38° E 18:28:43 10° NNE
Okean 1 3.1 18:23:56 31° S 18:25:42 87° E 18:29:36 10° N
Cosmos 1302 Rocket 4.4 18:25:11 10° N 18:30:14 50° ENE 18:32:20 32° ESE
Cosmos 1331 Rocket 4.1 18:26:13 10° NNW 18:31:27 73° WSW 18:34:02 30° S
Cosmos 1975 4.3 18:29:21 10° NNE 18:32:27 22° ENE 18:32:48 22° E
NOSS 3-3 (A) 4.3 18:33:25 31° SE 18:34:04 32° ESE 18:39:17 10° NE
Landsat 4 3.9 18:34:12 38° SSW 18:35:14 56° WSW 18:38:42 10° NNW
Chandra Rocket (1) 4.5 18:12:32 10° WSW 18:37:18 42° SSW 18:41:26 28° SE
USA 59 Rocket 1.3 18:34:05 10° NNW 18:37:49 35° NE 18:40:01 24° E
Cosmos 1110 Rocket 4.4 18:34:03 10° NNW 18:39:15 57° WSW 18:41:57 27° S
Cosmos 1500 Rocket 3.4 18:35:33 10° N 18:39:52 88° W 18:41:17 42° S
Cosmos 1536 3.2 18:37:19 10° NNW 18:41:09 55° W 18:42:34 34° SSW
Spot 2 Rocket 3.8 18:44:58 29° S 18:47:26 59° W 18:52:25 10° NNW
Cosmos 1726 3.6 18:45:30 10° NW 18:48:04 23° W 18:49:01 20° WSW
Lacrosse 4 Rocket 3.0 18:46:10 10° N 18:49:32 24° NE 18:50:36 22° ENE
Cosmos 1805 Rocket 3.5 18:46:00 10° N 18:50:25 82° W 18:51:39 47° S
NOSS 2-1 (D) 4.2 18:48:35 10° NNW 18:52:29 48° NE 18:54:08 35° ESE
Cosmos 1805 3.5 18:48:55 10° N 18:52:31 47° ENE 18:52:31 47° ENE
USA 306 2.5 18:50:35 10° NW 18:54:26 69° SW 18:54:37 67° SSW
Cosmos 1733 2.9 18:51:36 10° NNW 18:55:06 73° W 18:55:19 69° SW
Cosmos 1633 Rocket 4.1 18:53:07 10° NNE 18:57:04 31° ENE 18:57:27 31° E
SPOT 3 Rocket 4.0 18:55:32 31° SSW 18:57:48 55° W 19:02:51 10° NNW
Cosmos 1666 Rocket 4.2 18:55:01 10° N 18:59:05 39° ENE 18:59:23 38° E
USA 281 3.2 18:56:38 36° SSE 18:59:38 85° ENE 19:06:16 10° NNW
Landsat 5 3.4 18:57:22 10° N 19:01:08 67° WNW 19:02:00 48° SW
Cosmos 1818 3.6 19:00:14 44° SSE 19:01:38 57° ESE 19:07:00 10° NE
ISS -2.1 18:58:53 10° WNW 19:01:04 26° WSW 19:01:04 26° WSW
Meteor 1-27 Rocket 4.1 18:58:34 20° SSW 19:02:20 59° WNW 19:07:49 10° N
NOSS 3-3 (C) 3.8 19:03:23 46° SSE 19:04:29 53° ESE 19:10:22 10° NE
IRIDIUM 103 4.4 19:00:23 10° N 19:05:33 60° E 19:06:40 48° SE
CZ-3 Stage 3 4.4 18:31:43 10° SW 19:05:56 41° S 19:10:57 29° SE
Cosmos 220 Rocket 3.8 19:05:38 64° S 19:06:16 82° ESE 19:10:36 10° NNE
Sich 1 3.6 19:02:47 10° NNW 19:07:02 52° W 19:08:11 40° SW
CZ-2C R/B 4.2 19:03:17 10° NNE 19:07:21 41° E 19:07:21 41° E
Cosmos 1340 2.9 19:05:26 10° NNW 19:08:37 54° W 19:08:37 54° W
Cosmos 1697 Rocket 4.5 19:05:07 10° N 19:09:25 22° NE 19:12:03 16° E
Ariane Rocket 4.1 19:08:13 25° SW 19:10:28 37° W 19:15:10 10° NNW
Meteor 2-4 Rocket 3.8 19:09:16 44° S 19:11:13 74° E 19:17:09 10° NNE
Cosmos 1428 Rocket 4.4 19:13:23 37° S 19:16:01 85° W 19:22:10 10° N
MetOp-A 3.9 19:15:26 51° SSW 19:16:23 64° WSW 19:21:14 10° NNW
GEOS 3 Rocket 3.9 19:12:12 10° NNE 19:17:19 65° NW 19:22:21 10° SW
Terra 3.7 19:20:54 16° SW 19:23:02 22° W 19:26:40 10° NW
IRIDIUM 106 4.2 19:18:38 10° N 19:23:53 87° E 19:24:56 58° S
Cosmos 1092 Rocket 3.9 19:23:58 43° S 19:26:12 88° E 19:32:34 10° N
NOSS 2-1 (C) 3.7 19:24:52 10° NW 19:29:00 84° SW 19:29:35 69° SSE
Orbus 7S? 4.2 19:28:08 10° SW 19:35:55 40° ENE 19:37:55 10° NE
Cosmos 1269 Rocket 3.9 19:33:52 62° S 19:34:46 84° ESE 19:40:04 10° NNE
ARIANE 5 R/B 2.6 19:35:16 68° ENE 19:35:16 68° ENE 19:39:34 10° N
Meteor 1-18 Rocket 4.3 19:34:15 48° SSW 19:36:01 85° W 19:41:59 10° N
Centaur D AC-29 4.3 19:32:23 10° SW 19:40:10 43° SSE 21:10:24 10° ESE
Cosmos 1626 3.5 19:51:48 31° NW 19:51:48 31° NW 19:53:55 10° N
Cosmos 1833 Rocket 2.5 19:53:48 68° SSE 19:54:16 72° ESE 19:59:52 10° NNE
PSLV R/B 4.2 19:51:58 10° N 19:55:36 66° NNW 19:55:36 66° NNW
Spot 4 4.1 19:55:53 54° E 19:56:03 54° ENE 20:00:41 10° N
Cosmos 2082 Rocket 3.8 19:59:29 22° E 19:59:29 22° E 20:02:59 10° NE
Cosmos 1707 4.3 20:00:46 28° NE 20:00:46 28° NE 20:02:48 10° NNE
Cosmos 2360 4.2 19:54:27 10° NNW 20:00:11 72° ENE 20:01:04 61° ESE
BREEZE-M DEB (TANK) 3.7 19:59:05 34° WSW 20:01:19 89° SE 20:17:21 10° ENE
Cosmos 1842 4.3 20:06:48 39° NNE 20:06:48 39° NNE 20:09:13 10° NNE
Cosmos 1515 Rocket 3.8 20:14:38 64° NW 20:14:38 64° NW 20:18:30 10° N
Cosmos 1656 4.0 20:11:13 10° NW 20:16:29 49° WSW 20:16:41 49° WSW
Cosmos 1417 Rocket 4.5 20:11:52 10° N 20:18:11 71° E 20:19:12 60° SE
H-2A R/B 3.3 20:26:16 46° WNW 20:26:16 46° WNW 20:29:40 10° NNW
H-2A R/B 3.5 20:21:48 10° NNE 20:24:46 29° ENE 20:24:46 29° ENE
Cosmos 1470 Rocket 4.5 20:23:21 10° NNW 20:27:07 41° WNW 20:27:07 41° WNW
USA 59 Rocket 1.7 20:23:33 10° WNW 20:26:34 28° W 20:26:34 28° W
Lacrosse 4 Rocket 3.0 20:24:09 10° NW 20:26:31 26° WNW 20:26:31 26° WNW
USA 267 3.3 20:21:56 10° NE 20:28:18 52° SE 20:28:22 52° SE
Cosmos 1869 Rocket 4.2 20:24:40 10° N 20:28:21 50° NE 20:28:21 50° NE
BREEZE-M DEB (TANK) 4.5 20:25:24 10° W 20:31:07 27° NW 20:33:36 10° NNE
Cosmos 1470 4.0 20:32:19 10° NNW 20:34:40 36° NNW 20:34:40 36° NNW
Cosmos 1140 Rocket 3.7 20:39:23 59° W 20:39:51 62° WNW 20:45:02 10° NNE
Cosmos 1400 Rocket 4.3 20:43:51 30° NE 20:43:51 30° NE 20:46:18 10° NNE
GP-B 3.9 20:38:38 10° NNE 20:42:11 42° ENE 20:42:11 42° ENE
NOSS 3-4 (A) 4.0 20:36:50 10° NNW 20:43:48 69° NE 20:47:03 38° SE
NOSS 3-4 (C) 4.1 20:36:56 10° NNW 20:43:54 69° NE 20:47:12 37° SE
S3M 3.9 20:39:47 10° N 20:46:12 85° W 20:47:10 67° S
Cosmos 44 Rocket 3.4 20:42:20 10° NW 20:46:38 67° NW 20:46:38 67° NW
PSLV R/B 4.0 20:42:50 10° NNE 20:46:34 59° NE 20:46:34 59° NE
ALOS 2 3.2 20:48:58 52° NW 20:48:58 52° NW 20:52:33 10° NNW
Cosmos 724 4.5 20:49:14 53° WSW 20:50:29 67° NW 20:56:20 10° NNE
Cosmos 1697 Rocket 2.7 20:48:17 10° NNW 20:53:46 62° WSW 20:53:46 62° WSW
Meteor 2-10 Rocket 4.0 20:48:19 10° N 20:54:04 57° ENE 20:54:46 53° ESE
Cosmos 1607 4.5 20:53:10 35° WSW 20:55:46 56° NW 21:02:10 10° NNE
Cosmos 2315 Rocket 3.9 20:51:34 10° N 20:57:54 81° E 20:58:52 66° SSE
Cosmos 2285 Rocket 4.3 20:59:40 46° WSW 21:01:14 58° WNW 21:07:30 10° NNE
Cosmos 1980 Rocket 2.2 20:56:33 10° NNW 21:02:16 74° ENE 21:02:54 67° ESE
USA 234 4.4 20:57:01 10° E 21:03:02 40° NNE 21:09:02 10° NW
In-Cosmos 22 4.3 21:02:47 63° WSW 21:03:22 68° W 21:09:06 10° N
Cosmos 407 Rocket 4.0 21:09:36 48° W 21:10:10 50° WNW 21:15:17 10° N
Cosmos 468 Rocket 4.5 21:06:10 10° N 21:11:20 52° ENE 21:12:02 48° E
Cosmos 676 Rocket 4.3 21:11:58 55° E 21:11:58 55° E 21:16:58 10° NNE
SL-14 R/B 4.4 21:14:46 42° NNE 21:14:46 42° NNE 21:17:23 10° N
Meteor 1-23 Rocket 4.0 21:13:20 76° SW 21:13:40 81° W 21:19:20 10° N
Cosmos 1953 4.4 21:12:25 10° NNE 21:15:09 19° ENE 21:15:09 19° ENE
Cosmos 1954 Rocket 4.0 21:15:45 73° E 21:15:45 73° E 21:20:59 10° NNE
Cosmos 1763 Rocket 3.4 21:10:28 10° NNW 21:15:48 85° ENE 21:15:52 85° E
Cosmos 1190 Rocket 3.9 21:19:32 76° W 21:19:40 77° WNW 21:25:00 10° NNE
Cosmos 2369 3.7 21:14:24 10° NNW 21:20:09 79° ENE 21:20:50 68° SE
COSMOS 2406 3.0 21:20:30 78° S 21:20:53 86° ESE 21:26:41 10° NNE
Lacrosse 5 rocket 3.2 21:17:18 10° NNW 21:20:54 28° NNE 21:22:38 20° ENE
Meteor 2-20 4.3 21:15:49 10° N 21:22:00 82° E 21:22:57 65° SSE
Cosmos 2251 Rocket 4.2 21:21:23 42° W 21:22:03 44° WNW 21:27:06 10° N
Cosmos 1707 Rocket 3.9 21:24:52 64° N 21:24:52 64° N 21:28:41 10° N
Cosmos 540 Rocket 3.4 21:20:29 10° NNW 21:25:40 75° ENE 21:25:50 74° E
Cosmos 1655 Rocket 4.4 21:31:01 45° WSW 21:32:14 51° WNW 21:38:27 10° N
SL-8 R/B 3.9 21:28:35 10° WNW 21:32:42 65° NW 21:32:42 65° NW
SL-16 R/B 3.5 21:31:20 10° N 21:36:30 35° ENE 21:39:55 19° ESE
ATLAS CENTAUR R/B 4.2 21:23:57 10° NW 21:36:47 55° WSW 21:39:42 44° SSW
Resurs 1-4 Rocket 4.3 21:35:28 10° ENE 21:37:53 13° E 21:39:27 12° ESE
Cosmos 2082 Rocket 2.6 21:41:17 47° W 21:42:20 54° WNW 21:47:57 10° NNE
Cosmos 2228 Rocket 4.2 21:54:19 34° WNW 21:54:19 34° WNW 21:58:09 10° N
Nimbus 7 Rocket 4.3 21:48:05 10° NNE 21:54:08 87° ESE 21:55:15 62° S
Cosmos 2360 Rocket 4.2 21:49:43 10° N 21:54:21 25° NE 21:58:57 10° ESE
Cosmos 1908 Rocket 3.9 21:51:46 10° N 21:56:07 56° E 21:56:09 56° E
Cosmos 1315 Rocket 3.6 21:57:01 46° ENE 21:57:01 46° ENE 22:00:09 10° NNE
H-2A R/B 3.7 21:57:49 10° NNW 22:01:19 23° WNW 22:01:34 23° WNW
Cosmos 1356 Rocket 4.4 22:02:29 38° NW 22:02:29 38° NW 22:05:47 10° N
Helios 1A Rocket 3.2 22:04:05 59° NNE 22:04:05 59° NNE 22:07:23 10° N
Cosmos 1733 Rocket 4.2 21:59:51 10° NNW 22:02:58 32° WNW 22:02:58 32° WNW
USA 267 3.9 22:05:00 10° NE 22:11:17 52° NNW 22:15:41 20° W
CZ-2C R/B 4.4 22:08:21 11° ESE 22:12:18 26° ENE 22:16:33 10° N
Cosmos 1850 Rocket 3.9 22:16:23 67° S 22:17:05 80° ESE 22:22:22 10° NNE
ADEOS II 4.1 22:14:01 10° NE 22:17:42 19° E 22:20:07 14° SE
MOZ.5/SAFIR/RUBIN 5/SL-8 4.2 22:16:47 44° ESE 22:17:56 57° ENE 22:22:33 10° N
IDEFIX/ARIANE 42P 3.5 22:13:00 10° NNE 22:17:57 40° E 22:19:19 33° SE
Cosmos 2278 3.6 22:14:30 10° NNW 22:20:15 85° WSW 22:21:39 53° SSE
Cosmos 968 Rocket 3.7 22:20:08 51° SE 22:20:51 57° ESE 22:25:52 10° NNE
Cosmos 1741 Rocket 3.9 22:23:15 66° S 22:24:02 87° ESE 22:29:19 10° NNE
Cosmos 1408 4.0 22:29:28 26° ENE 22:29:28 26° ENE 22:31:23 10° NNE
NPP 4.2 22:25:08 10° NNE 22:30:24 51° E 22:32:02 38° SSE
Cosmos 1703 Rocket 3.8 22:33:34 56° W 22:33:38 56° W 22:38:02 10° N
Cosmos 2322 Rocket 2.6 22:28:40 10° NNW 22:34:17 61° ENE 22:38:15 20° SE
Cosmos 841 Rocket 3.5 22:30:12 10° NNW 22:35:22 60° WSW 22:35:53 57° SW
Cosmos 1745 Rocket 4.0 22:34:34 48° SSW 22:36:21 71° W 22:42:39 10° N
Cosmos 2333 Rocket 3.2 22:32:25 10° NNW 22:37:56 46° ENE 22:43:26 10° SE
RESURS DK-1 4.1 22:36:40 10° N 22:40:18 30° ENE 22:43:55 10° ESE
SL-4 R/B 2.7 22:42:28 44° SE 22:42:28 44° SE 22:46:23 10° ENE
Okean 1-7 4.3 22:43:16 28° WNW 22:43:16 28° WNW 22:47:00 10° NNW
Cosmos 2242 Rocket 3.7 22:42:53 55° SSE 22:43:39 68° E 22:48:07 10° NNE
Cosmos 1980 Rocket 4.1 22:42:19 10° WNW 22:44:37 15° W 22:44:37 15° W
USA 234 3.1 22:39:11 10° SE 22:45:43 76° SW 22:52:19 10° NW
Genesis I 3.3 22:46:54 57° NNW 22:46:54 57° NNW 22:50:08 10° NNE
CZ-2C R/B 4.1 22:41:46 10° NNE 22:47:15 43° E 22:50:06 25° SSE
Cosmos 1300 Rocket 3.4 22:44:27 10° N 22:48:46 88° E 22:49:26 63° SSE
Cosmos 1953 3.6 22:47:41 10° NNW 22:50:16 26° WNW 22:50:16 26° WNW
Cosmos 1455 3.6 22:48:31 10° NNW 22:50:27 24° NW 22:50:27 24° NW
MSX 3.9 22:49:43 10° NNE 22:55:29 75° ESE 22:57:51 37° S
DELTA 2 R/B (1) 3.6 22:57:05 36° WSW 22:59:01 55° SSW 23:04:26 10° ESE
Cosmos 1833 4.2 22:57:09 41° S 22:59:10 74° ESE 23:04:49 10° NNE
Lacrosse 5 rocket 2.8 22:55:30 10° WNW 22:57:22 24° WNW 22:57:22 24° WNW
Nadezhda 1 Rocket 4.4 22:53:42 10° NNW 22:59:46 46° W 23:01:43 36° SW
SJ 16-02 1.2 23:00:30 60° SW 23:01:14 81° WNW 23:05:34 10° NNE
EXPRESS MD2 3.8 23:02:05 35° NNW 23:02:24 36° NNW 23:05:55 10° NE
Meteor 2-5 Rocket 4.1 23:01:49 29° S 23:04:51 67° E 23:10:46 10° NNE
H-2A R/B 3.3 23:02:37 10° N 23:06:36 68° WNW 23:07:10 58° SW
Cosmos 1814 Rocket 3.9 23:04:21 10° NNW 23:09:35 87° WSW 23:12:46 25° SSE
BREEZE-M R/B 3.9 23:07:43 34° SW 23:10:11 84° SSE 23:25:55 10° ENE
Cosmos 1825 4.2 23:09:14 13° SE 23:11:03 19° E 23:13:33 10° NE
CZ-2D R/B 2.1 23:07:39 10° NNE 23:13:08 90° WNW 23:15:34 35° SSW
Resurs 1-4 Rocket 2.0 23:12:58 10° N 23:18:14 77° WNW 23:20:31 35° SSW
Cosmos 1242 Rocket 4.0 23:20:20 19° NW 23:20:20 19° NW 23:21:55 10° NNW
SL-27 R/B 3.2 23:20:58 31° NW 23:20:58 31° NW 23:23:07 10° N
SL-16 R/B 2.8 23:15:27 10° NW 23:20:33 36° WSW 23:21:42 32° SW
Cosmos 1703 3.1 23:21:03 54° SW 23:21:43 68° W 23:25:26 10° N
ATLAS CENTAUR R/B 2.7 23:21:48 19° SE 23:22:47 22° ESE 23:25:34 10° ENE
Cosmos 839 Rocket 4.1 23:19:29 10° NNW 23:26:34 86° ENE 23:32:44 10° SSE
SL-24 R/B 4.3 23:24:12 25° S 23:27:02 88° E 23:31:52 10° N
Cosmos 2219 Rocket 2.6 23:22:16 10° NNW 23:27:54 65° ENE 23:33:32 10° SE
Cosmos 2333 4.2 23:25:12 10° NNW 23:30:58 87° WSW 23:36:44 10° SSE
ATLAS 2AS CENTAUR R/B 3.0 23:25:13 10° NNW 23:32:01 65° NE 23:38:34 10° SE
Cosmos 1892 3.2 23:33:42 25° SSE 23:35:26 48° E 23:38:51 10° NNE
Cosmos 1570 Rocket 4.4 23:30:42 10° NNW 23:36:01 68° ENE 23:41:19 10° SSE
Cosmos 2360 Rocket 2.3 23:33:08 10° NNW 23:38:39 53° WSW 23:42:47 17° S
Cosmos 2098 Rocket 4.0 23:40:46 10° NNW 23:46:15 58° W 23:50:53 18° SSW
Envisat 4.4 23:42:14 10° NNE 23:46:51 34° E 23:51:26 10° SSE
FENGYUN 3A 3.6 23:41:31 10° N 23:46:53 73° WNW 23:50:19 23° SSW
SAR-Lupe-1 4.4 23:44:16 10° NNE 23:47:49 61° ESE 23:49:55 22° S
COSMOS 2428 3.8 23:42:39 10° NNW 23:48:07 46° ENE 23:53:33 10° SE
Cosmos 2181 Rocket 4.2 23:46:01 10° NNW 23:52:11 55° W 23:56:55 17° SSW
CZ-2C R/B 3.1 23:49:49 24° SSW 23:52:21 39° W 23:57:12 10° NNW
